Terminal Aerodrome Forecast
Issued by NWS Grand Forks, ND

Home | Current Version | Previous Version | Graphics & Text | Print | Product List | Glossary On
Versions: 1 2 3 4 5 6 7 8 9 10 11 12 13 14 15 16
223
FTUS43 KFGF 261611 AAC
TAFFAR
TAF AMD
KFAR 261611Z 2616/2712 27013KT P6SM FEW050
     FM261700 28014G22KT P6SM SCT050
     FM270200 27009KT P6SM SCT250
     FM270400 26005KT P6SM SCT250=

USA.gov is the U.S. government's official web portal to all federal, state and local government web resources and services.